| time (UTC) | temp C | wind direction | speed KPH | gust KPH | rain 1hr cm | rain 24hr cm | rain mn cm | humidity % | barometer mb |
| 20260508165412 | 21 | 182 | 1.6 | 4.8 | 0.00 | 2.03 | 0.00 | 49 | 1017.8 |
| 20260508164911 | 21 | 182 | 1.6 | 6.4 | 0.00 | 2.03 | 0.00 | 47 | 1017.8 |
| 20260508164644 | 21 | 182 | 3.2 | 6.4 | 0.00 | 2.03 | 0.00 | 45 | 1018.0 |
| 20260508164142 | 21 | 182 | 3.2 | 8.0 | 0.00 | 2.03 | 0.00 | 47 | 1018.1 |
| 20260508163411 | 20 | 182 | 1.6 | 8.0 | 0.00 | 2.03 | 0.00 | 48 | 1018.0 |
| 20260508162912 | 21 | 182 | 0.0 | 4.8 | 0.00 | 2.03 | 0.00 | 48 | 1018.1 |
| 20260508162412 | 21 | 182 | 1.6 | 6.4 | 0.00 | 2.03 | 0.00 | 50 | 1018.2 |
| 20260508161911 | 21 | 182 | 1.6 | 6.4 | 0.00 | 2.03 | 0.00 | 48 | 1018.2 |
| 20260508161409 | 21 | 182 | 1.6 | 8.0 | 0.00 | 2.03 | 0.00 | 53 | 1018.2 |
| 20260508160909 | 21 | 182 | 1.6 | 8.0 | 0.00 | 2.03 | 0.00 | 53 | 1018.3 |
| 20260508160410 | 21 | 182 | 1.6 | 6.4 | 0.00 | 2.03 | 0.00 | 52 | 1018.4 |
| 20260508155910 | 21 | 182 | 1.6 | 9.7 | 0.00 | 2.03 | 0.00 | 53 | 1018.5 |
| 20260508155409 | 20 | 182 | 1.6 | 9.7 | 0.00 | 2.03 | 0.00 | 52 | 1018.5 |
| 20260508154908 | 21 | 181 | 1.6 | 6.4 | 0.00 | 2.03 | 0.00 | 53 | 1018.5 |
| 20260508154637 | 20 | 181 | 1.6 | 6.4 | 0.00 | 2.03 | 0.00 | 50 | 1018.6 |
| 20260508154136 | 21 | 181 | 1.6 | 6.4 | 0.00 | 2.03 | 0.00 | 50 | 1018.7 |
| 20260508153405 | 21 | 181 | 1.6 | 8.0 | 0.00 | 2.03 | 0.00 | 54 | 1018.5 |
| 20260508152904 | 21 | 181 | 1.6 | 8.0 | 0.00 | 2.03 | 0.00 | 52 | 1018.6 |
| 20260508152403 | 21 | 182 | 0.0 | 3.2 | 0.00 | 2.03 | 0.00 | 54 | 1018.7 |
| 20260508151901 | 21 | 181 | 0.0 | 3.2 | 0.00 | 2.03 | 0.00 | 56 | 1018.6 |
| 20260508151401 | 21 | 182 | 0.0 | 3.2 | 0.00 | 2.03 | 0.00 | 55 | 1018.5 |
| 20260508151133 | 21 | 182 | 0.0 | 3.2 | 0.00 | 2.03 | 0.00 | 56 | 1018.6 |
| 20260508150359 | 20 | 181 | 0.0 | 3.2 | 0.00 | 2.03 | 0.00 | 58 | 1018.5 |
| 20260508145858 | 20 | 181 | 1.6 | 9.7 | 0.00 | 2.03 | 0.00 | 61 | 1018.5 |
| 20260508145632 | 19 | 181 | 1.6 | 9.7 | 0.00 | 2.03 | 0.00 | 54 | 1018.6 |
| 20260508145129 | 20 | 181 | 0.0 | 1.6 | 0.00 | 2.03 | 0.00 | 60 | 1018.5 |
| 20260508144357 | 20 | 182 | 0.0 | 1.6 | 0.00 | 2.03 | 0.00 | 60 | 1018.5 |
| 20260508143857 | 20 | 182 | 0.0 | 1.6 | 0.00 | 2.03 | 0.00 | 63 | 1018.6 |
| 20260508143357 | 19 | 182 | 0.0 | 1.6 | 0.00 | 2.03 | 0.00 | 62 | 1018.6 |
| 20260508142857 | 18 | 182 | 0.0 | 4.8 | 0.00 | 2.06 | 0.00 | 63 | 1018.6 |
| 20260508142357 | 18 | 182 | 0.0 | 4.8 | 0.00 | 2.06 | 0.00 | 66 | 1018.6 |
| 20260508141857 | 18 | 182 | 0.0 | 3.2 | 0.00 | 2.06 | 0.00 | 69 | 1018.6 |
| 20260508141356 | 18 | 182 | 0.0 | 3.2 | 0.00 | 2.08 | 0.00 | 69 | 1018.7 |
| 20260508140855 | 17 | 181 | 0.0 | 3.2 | 0.00 | 2.08 | 0.00 | 71 | 1018.7 |
| 20260508140355 | 17 | 182 | 0.0 | 3.2 | 0.00 | 2.08 | 0.00 | 74 | 1018.8 |
| 20260508135855 | 17 | 181 | 0.0 | 3.2 | 0.00 | 2.08 | 0.00 | 73 | 1018.8 |
| 20260508135626 | 17 | 182 | 0.0 | 0.0 | 0.00 | 2.08 | 0.00 | 80 | 1018.7 |
| 20260508135126 | 16 | 181 | 0.0 | 3.2 | 0.00 | 2.08 | 0.00 | 81 | 1018.8 |
| 20260508134355 | 15 | 182 | 0.0 | 3.2 | 0.00 | 2.08 | 0.00 | 88 | 1018.6 |
| 20260508133855 | 15 | 181 | 0.0 | 1.6 | 0.00 | 2.11 | 0.00 | 93 | 1018.6 |
| 20260508133354 | 14 | 181 | 0.0 | 3.2 | 0.00 | 2.11 | 0.00 | 99 | 1018.6 |
| 20260508132854 | 13 | 182 | 0.0 | 3.2 | 0.00 | 2.11 | 0.00 | 100 | 1018.5 |
| 20260508132353 | 13 | 181 | 0.0 | 3.2 | 0.00 | 2.11 | 0.00 | 100 | 1018.5 |
| 20260508131853 | 13 | 181 | 0.0 | 3.2 | 0.00 | 2.11 | 0.00 | 100 | 1018.5 |
| 20260508131357 | 12 | 181 | 0.0 | 0.0 | 0.00 | 2.13 | 0.00 | 100 | 1018.6 |
| 20260508131353 | 13 | 181 | 0.0 | 1.6 | 0.00 | 2.13 | 0.00 | 100 | 1018.5 |
| 20260508130352 | 12 | 181 | 0.0 | 1.6 | 0.00 | 2.13 | 0.00 | 100 | 1018.5 |
| 20260508130124 | 11 | 181 | 0.0 | 1.6 | 0.00 | 2.13 | 0.00 | 100 | 1018.5 |
| 20260508125350 | 11 | 181 | 0.0 | 0.0 | 0.00 | 2.13 | 0.00 | 100 | 1018.5 |
| 20260508124851 | 12 | 181 | 0.0 | 0.0 | 0.00 | 2.13 | 0.00 | 100 | 1018.4 |
| 20260508124351 | 11 | 181 | 0.0 | 0.0 | 0.00 | 2.13 | 0.00 | 100 | 1018.3 |
| 20260508123850 | 11 | 181 | 0.0 | 0.0 | 0.00 | 2.13 | 0.00 | 100 | 1018.2 |
| 20260508123350 | 11 | 181 | 0.0 | 0.0 | 0.00 | 2.13 | 0.00 | 100 | 1018.1 |
| 20260508122850 | 11 | 182 | 0.0 | 0.0 | 0.00 | 2.13 | 0.00 | 100 | 1018.1 |
| 20260508122350 | 11 | 181 | 0.0 | 0.0 | 0.00 | 2.13 | 0.00 | 100 | 1018.0 |
| 20260508121850 | 11 | 181 | 0.0 | 0.0 | 0.00 | 2.13 | 0.00 | 100 | 1018.0 |
| 20260508121350 | 11 | 181 | 0.0 | 0.0 | 0.00 | 2.13 | 0.00 | 100 | 1018.0 |
| 20260508121122 | 11 | 181 | 0.0 | 0.0 | 0.00 | 2.13 | 0.00 | 100 | 1017.9 |
| 20260508120348 | 11 | 181 | 0.0 | 0.0 | 0.00 | 2.13 | 0.00 | 100 | 1017.9 |
| 20260508115847 | 11 | 181 | 0.0 | 0.0 | 0.00 | 2.13 | 0.00 | 100 | 1017.8 |
| 20260508115348 | 11 | 181 | 0.0 | 0.0 | 0.00 | 2.13 | 0.00 | 100 | 1017.8 |
| 20260508115119 | 11 | 182 | 0.0 | 0.0 | 0.00 | 2.13 | 0.00 | 100 | 1017.8 |
| 20260508114348 | 10 | 181 | 0.0 | 0.0 | 0.00 | 2.13 | 0.00 | 100 | 1017.6 |
| 20260508113848 | 10 | 181 | 0.0 | 0.0 | 0.00 | 2.13 | 0.00 | 100 | 1017.5 |
| 20260508113349 | 10 | 182 | 0.0 | 0.0 | 0.00 | 2.13 | 0.00 | 100 | 1017.5 |
| 20260508112849 | 10 | 181 | 0.0 | 0.0 | 0.00 | 2.13 | 0.00 | 100 | 1017.4 |
| 20260508112349 | 10 | 181 | 0.0 | 0.0 | 0.00 | 2.13 | 0.00 | 100 | 1017.2 |
| 20260508111849 | -17 | 0.0 | 0.0 | 0.00 | 2.13 | 0.00 | 1017.1 | ||
| 20260508111348 | -17 | 0.0 | 0.0 | 0.00 | 2.13 | 0.00 | 1017.2 | ||
| 20260508110849 | -17 | 0.0 | 0.0 | 0.00 | 2.13 | 0.00 | 1017.0 | ||
| 20260508110349 | -17 | 0.0 | 0.0 | 0.00 | 2.13 | 0.00 | 1016.8 | ||
| 20260508105847 | -17 | 0.0 | 0.0 | 0.00 | 2.13 | 0.00 | 1016.9 | ||
| 20260508105345 | -17 | 0.0 | 0.0 | 0.00 | 2.13 | 0.00 | 1016.7 | ||
| 20260508104843 | -17 | 0.0 | 0.0 | 0.00 | 2.13 | 0.00 | 1016.8 | ||
| 20260508104247 | -17 | 0.0 | 0.0 | 0.00 | 2.13 | 0.00 | 1016.6 | ||
| 20260508103748 | -17 | 0.0 | 0.0 | 0.00 | 2.13 | 0.00 | 1016.4 | ||
| 20260508103244 | -17 | 0.0 | 0.0 | 0.00 | 2.13 | 0.00 | 1016.3 | ||
| 20260508102744 | -17 | 0.0 | 0.0 | 0.00 | 2.13 | 0.00 | 1016.1 | ||
| 20260508102238 | -17 | 0.0 | 0.0 | 0.00 | 2.13 | 0.00 | 1016.0 | ||
| 20260508101650 | -17 | 0.0 | 0.0 | 0.00 | 2.13 | 0.00 | 1016.1 | ||
| 20260508101145 | -17 | 0.0 | 0.0 | 0.00 | 2.13 | 0.00 | 1015.9 | ||
| 20260508100645 | -17 | 0.0 | 0.0 | 0.00 | 2.13 | 0.00 | 1015.9 | ||
| 20260508100143 | -17 | 0.0 | 0.0 | 0.00 | 2.13 | 0.00 | 1015.9 | ||
| 20260508095818 | -17 | 0.0 | 0.0 | 0.00 | 2.13 | 0.00 | 1015.9 | ||
| 20260508095048 | -17 | 0.0 | 0.0 | 0.00 | 2.13 | 0.00 | 1015.9 | ||
| 20260508094543 | -17 | 0.0 | 0.0 | 0.00 | 2.13 | 0.00 | 1016.0 | ||
| 20260508093951 | -17 | 0.0 | 0.0 | 0.00 | 2.13 | 0.00 | 1015.7 | ||
| 20260508093445 | -17 | 179 | 0.0 | 0.0 | 0.00 | 2.13 | 0.00 | 1015.7 | |
| 20260508092943 | -17 | 179 | 0.0 | 0.0 | 0.00 | 2.13 | 0.00 | 1015.7 | |
| 20260508092654 | 10 | 179 | 0.0 | 0.0 | 0.00 | 2.13 | 0.00 | 99 | 1015.8 |
| 20260508092529 | 10 | 179 | 0.0 | 0.0 | 0.00 | 2.13 | 0.00 | 99 | 1015.8 |
| 20260508091420 | 10 | 181 | 0.0 | 0.0 | 0.00 | 2.13 | 0.00 | 100 | 1015.7 |
| 20260508090920 | 10 | 181 | 0.0 | 0.0 | 0.00 | 2.13 | 0.00 | 100 | 1015.4 |
| 20260508090418 | 10 | 181 | 0.0 | 0.0 | 0.00 | 2.13 | 0.00 | 100 | 1015.6 |
| 20260508085918 | 10 | 181 | 0.0 | 0.0 | 0.00 | 2.16 | 0.00 | 100 | 1015.6 |
| 20260508085416 | 10 | 181 | 0.0 | 0.0 | 0.00 | 2.16 | 0.00 | 100 | 1015.6 |
| 20260508084919 | 10 | 181 | 0.0 | 0.0 | 0.00 | 2.18 | 0.00 | 99 | 1015.4 |
| 20260508084914 | 10 | 181 | 0.0 | 0.0 | 0.00 | 2.18 | 0.00 | 100 | 1015.6 |
| 20260508084520 | 10 | 181 | 0.0 | 0.0 | 0.00 | 2.21 | 0.00 | 99 | 1015.4 |
| 20260508083413 | 10 | 181 | 0.0 | 0.0 | 0.00 | 2.21 | 0.00 | 99 | 1015.3 |
| 20260508082911 | 10 | 181 | 0.0 | 0.0 | 0.00 | 2.21 | 0.00 | 99 | 1015.3 |
| 20260508082412 | 10 | 182 | 0.0 | 0.0 | 0.00 | 2.24 | 0.00 | 99 | 1015.3 |
| 20260508081911 | 10 | 181 | 0.0 | 0.0 | 0.00 | 2.24 | 0.00 | 99 | 1015.2 |
| 20260508081412 | 10 | 181 | 0.0 | 0.0 | 0.00 | 2.24 | 0.00 | 99 | 1015.3 |
| 20260508081142 | 10 | 181 | 0.0 | 0.0 | 0.00 | 2.26 | 0.00 | 99 | 1015.2 |
| 20260508080411 | 10 | 181 | 0.0 | 0.0 | 0.00 | 2.29 | 0.00 | 99 | 1015.1 |
| 20260508075913 | 10 | 182 | 0.0 | 0.0 | 0.00 | 2.29 | 0.00 | 99 | 1014.9 |
| 20260508075412 | 10 | 182 | 0.0 | 0.0 | 0.00 | 2.31 | 0.00 | 99 | 1015.0 |
| 20260508074912 | 10 | 181 | 0.0 | 0.0 | 0.00 | 2.34 | 0.00 | 99 | 1014.9 |
| 20260508074412 | 11 | 181 | 0.0 | 0.0 | 0.00 | 2.34 | 0.00 | 99 | 1014.9 |
| 20260508073912 | 11 | 182 | 0.0 | 0.0 | 0.00 | 2.36 | 0.00 | 99 | 1015.0 |
| 20260508073642 | 11 | 181 | 0.0 | 0.0 | 0.00 | 2.41 | 0.00 | 99 | 1014.9 |
| 20260508072912 | 11 | 181 | 0.0 | 0.0 | 0.00 | 2.44 | 0.00 | 99 | 1014.9 |
| 20260508072412 | 11 | 182 | 0.0 | 0.0 | 0.00 | 2.46 | 0.00 | 99 | 1014.8 |
| 20260508071913 | 11 | 181 | 0.0 | 0.0 | 0.00 | 2.49 | 0.00 | 99 | 1014.7 |
| 20260508071411 | 11 | 181 | 0.0 | 0.0 | 0.00 | 2.51 | 0.00 | 99 | 1014.6 |
| 20260508070911 | 11 | 181 | 0.0 | 0.0 | 0.00 | 2.57 | 0.00 | 99 | 1014.6 |
| 20260508070409 | 11 | 181 | 0.0 | 0.0 | 0.00 | 2.64 | 0.00 | 99 | 1014.7 |
| 20260508065909 | 11 | 181 | 0.0 | 0.0 | 0.00 | 2.84 | 0.00 | 99 | 1014.5 |
| 20260508065409 | 11 | 181 | 0.0 | 0.0 | 0.00 | 2.90 | 0.00 | 99 | 1014.6 |
| 20260508065141 | 11 | 181 | 0.0 | 0.0 | 0.00 | 2.97 | 0.00 | 99 | 1014.6 |
| 20260508064406 | 11 | 181 | 0.0 | 0.0 | 0.00 | 3.05 | 0.00 | 99 | 1014.5 |
| 20260508064138 | 11 | 181 | 0.0 | 0.0 | 0.00 | 3.12 | 0.00 | 99 | 1014.6 |
| 20260508063404 | 11 | 181 | 0.0 | 0.0 | 0.00 | 3.20 | 0.00 | 99 | 1014.6 |
| 20260508063134 | 11 | 181 | 0.0 | 0.0 | 0.00 | 3.30 | 0.00 | 99 | 1014.7 |
| 20260508062402 | 11 | 182 | 0.0 | 0.0 | 0.00 | 3.43 | 0.00 | 99 | 1014.8 |
| 20260508061901 | 12 | 182 | 0.0 | 0.0 | 0.00 | 3.56 | 0.00 | 99 | 1014.9 |
| 20260508061630 | 12 | 181 | 0.0 | 0.0 | 0.00 | 3.78 | 0.00 | 99 | 1014.9 |
| 20260508060857 | 12 | 181 | 0.0 | 0.0 | 0.00 | 3.99 | 0.00 | 99 | 1014.8 |
| 20260508060626 | 12 | 181 | 0.0 | 0.0 | 0.00 | 4.22 | 0.00 | 99 | 1014.9 |
| 20260508055855 | 12 | 181 | 0.0 | 0.0 | 0.00 | 4.42 | 0.00 | 99 | 1014.9 |
| 20260508055356 | 12 | 182 | 0.0 | 0.0 | 0.00 | 4.42 | 0.00 | 99 | 1014.8 |
| 20260508054856 | 12 | 182 | 0.0 | 0.0 | 0.00 | 4.42 | 0.00 | 99 | 1015.0 |
| 20260508054355 | 12 | 182 | 0.0 | 0.0 | 0.00 | 4.45 | 0.00 | 99 | 1015.0 |
| 20260508053855 | 12 | 181 | 0.0 | 0.0 | 0.00 | 4.45 | 0.00 | 99 | 1014.9 |
| 20260508053355 | 12 | 181 | 0.0 | 0.0 | 0.00 | 4.45 | 0.00 | 99 | 1014.8 |
| 20260508052855 | 12 | 182 | 0.0 | 0.0 | 0.00 | 4.45 | 0.00 | 99 | 1014.8 |
| 20260508052355 | 12 | 181 | 0.0 | 0.0 | 0.00 | 4.47 | 0.00 | 99 | 1014.8 |
| 20260508051856 | 12 | 181 | 0.0 | 0.0 | 0.00 | 4.52 | 0.00 | 99 | 1014.8 |
| 20260508051629 | 13 | 181 | 0.0 | 0.0 | 0.00 | 4.52 | 0.00 | 99 | 1014.8 |
| 20260508050855 | 13 | 181 | 0.0 | 0.0 | 0.00 | 4.52 | 0.00 | 99 | 1014.8 |
| 20260508050353 | 13 | 181 | 0.0 | 0.0 | 0.00 | 4.52 | 0.00 | 99 | 1014.6 |
| 20260508045853 | 13 | 181 | 0.0 | 0.0 | 0.00 | 4.52 | 0.00 | 99 | 1014.8 |
| 20260508045623 | 13 | 182 | 0.0 | 0.0 | 0.00 | 4.52 | 0.00 | 99 | 1014.6 |
| 20260508044851 | 13 | 182 | 0.0 | 0.0 | 0.00 | 4.52 | 0.00 | 99 | 1014.6 |
| 20260508044351 | 13 | 181 | 0.0 | 0.0 | 0.00 | 4.52 | 0.00 | 99 | 1014.5 |
| 20260508043849 | 13 | 181 | 0.0 | 0.0 | 0.00 | 4.52 | 0.00 | 99 | 1014.5 |
| 20260508043350 | 13 | 181 | 0.0 | 0.0 | 0.00 | 4.52 | 0.00 | 99 | 1014.4 |
| 20260508042849 | 13 | 181 | 0.0 | 0.0 | 0.00 | 4.52 | 0.00 | 99 | 1014.5 |
| 20260508042349 | 13 | 181 | 0.0 | 0.0 | 0.00 | 4.52 | 0.00 | 99 | 1014.6 |
| 20260508042119 | 13 | 182 | 0.0 | 0.0 | 0.00 | 4.52 | 0.00 | 99 | 1014.6 |
| 20260508041620 | 13 | 181 | 0.0 | 0.0 | 0.00 | 4.52 | 0.00 | 99 | 1014.4 |
| 20260508040850 | 13 | 182 | 0.0 | 0.0 | 0.00 | 4.52 | 0.00 | 99 | 1014.3 |
| 20260508040350 | 13 | 181 | 0.0 | 0.0 | 0.00 | 4.52 | 0.00 | 99 | 1014.4 |
| 20260508035849 | 13 | 181 | 0.0 | 0.0 | 0.00 | 4.52 | 4.52 | 99 | 1014.4 |
| 20260508035620 | 13 | 181 | 0.0 | 0.0 | 0.00 | 4.52 | 4.52 | 99 | 1014.4 |
| 20260508034847 | 13 | 181 | 0.0 | 0.0 | 0.00 | 4.52 | 4.52 | 99 | 1014.5 |
| 20260508034347 | 13 | 181 | 0.0 | 0.0 | 0.00 | 4.52 | 4.52 | 99 | 1014.5 |
| 20260508034118 | 13 | 182 | 0.0 | 0.0 | 0.00 | 4.52 | 4.52 | 99 | 1014.2 |
| 20260508033347 | 13 | 181 | 0.0 | 0.0 | 0.00 | 4.52 | 4.52 | 99 | 1014.3 |
| 20260508032847 | 13 | 181 | 0.0 | 0.0 | 0.00 | 4.52 | 4.52 | 99 | 1014.3 |
| 20260508032618 | 13 | 181 | 0.0 | 0.0 | 0.00 | 4.52 | 4.52 | 99 | 1014.4 |
| 20260508032118 | 13 | 181 | 0.0 | 0.0 | 0.00 | 4.52 | 4.52 | 99 | 1014.4 |
| 20260508031347 | 13 | 181 | 0.0 | 0.0 | 0.00 | 4.52 | 4.52 | 99 | 1014.4 |
| 20260508030847 | 13 | 181 | 0.0 | 0.0 | 0.00 | 4.55 | 4.52 | 99 | 1014.3 |
| 20260508030346 | 13 | 182 | 0.0 | 0.0 | 0.00 | 4.55 | 4.52 | 99 | 1014.2 |
| 20260508025849 | 13 | 181 | 0.0 | 0.0 | 0.00 | 4.57 | 4.52 | 98 | 1014.2 |
| 20260508025845 | 13 | 182 | 0.0 | 0.0 | 0.00 | 4.57 | 4.52 | 98 | 1014.1 |
| 20260508024844 | 13 | 181 | 0.0 | 0.0 | 0.00 | 4.57 | 4.52 | 98 | 1014.1 |
| 20260508024617 | 13 | 181 | 0.0 | 0.0 | 0.00 | 4.62 | 4.52 | 98 | 1014.2 |
| 20260508023845 | 13 | 181 | 0.0 | 0.0 | 0.00 | 4.67 | 4.52 | 98 | 1014.0 |
| 20260508023345 | 14 | 181 | 0.0 | 3.2 | 0.00 | 4.75 | 4.52 | 98 | 1013.9 |
| 20260508023116 | 14 | 181 | 0.0 | 3.2 | 0.00 | 4.83 | 4.52 | 98 | 1013.9 |
| 20260508022345 | 14 | 181 | 0.0 | 1.6 | 0.00 | 4.88 | 4.52 | 98 | 1013.8 |
| 20260508021845 | 14 | 182 | 0.0 | 1.6 | 0.00 | 4.90 | 4.52 | 98 | 1013.7 |
| 20260508021617 | 14 | 181 | 0.0 | 0.0 | 0.00 | 4.93 | 4.52 | 98 | 1013.6 |
| 20260508020845 | 14 | 181 | 0.0 | 0.0 | 0.00 | 4.95 | 4.52 | 98 | 1013.7 |
| 20260508020346 | 14 | 181 | 0.0 | 0.0 | 0.00 | 5.00 | 4.52 | 98 | 1013.4 |
| 20260508015845 | 14 | 181 | 0.0 | 0.0 | 0.00 | 5.03 | 4.52 | 98 | 1013.4 |
| 20260508015617 | 14 | 181 | 0.0 | 0.0 | 0.00 | 5.03 | 4.52 | 98 | 1013.3 |
| 20260508014845 | 15 | 182 | 0.0 | 0.0 | 0.00 | 5.03 | 4.52 | 98 | 1013.1 |
| 20260508014345 | 14 | 181 | 0.0 | 0.0 | 0.00 | 5.03 | 4.52 | 98 | 1013.1 |
| 20260508013844 | 15 | 181 | 0.0 | 0.0 | 0.00 | 5.03 | 4.52 | 98 | 1012.9 |
| 20260508013616 | 15 | 182 | 0.0 | 1.6 | 0.00 | 5.03 | 4.52 | 98 | 1012.8 |
| 20260508012845 | 15 | 181 | 0.0 | 1.6 | 0.00 | 5.03 | 4.52 | 98 | 1012.9 |
| 20260508012616 | 15 | 181 | 0.0 | 0.0 | 0.00 | 5.03 | 4.52 | 98 | 1012.9 |
| 20260508011844 | 15 | 181 | 0.0 | 0.0 | 0.00 | 5.03 | 4.52 | 98 | 1012.8 |
| 20260508011346 | 15 | 182 | 0.0 | 3.2 | 0.00 | 5.03 | 4.52 | 98 | 1012.7 |
| 20260508010845 | 15 | 181 | 0.0 | 3.2 | 0.00 | 5.03 | 4.52 | 98 | 1012.4 |
| 20260508010617 | 15 | 182 | 1.6 | 6.4 | 0.00 | 5.03 | 4.52 | 98 | 1012.5 |
| 20260508005845 | 15 | 181 | 1.6 | 6.4 | 0.05 | 5.03 | 4.52 | 98 | 1012.4 |
| 20260508005346 | 15 | 181 | 0.0 | 4.8 | 0.08 | 5.11 | 4.52 | 98 | 1012.5 |
| 20260508004844 | 15 | 181 | 0.0 | 4.8 | 0.23 | 5.44 | 4.52 | 98 | 1012.3 |
| 20260508004346 | 15 | 182 | 0.0 | 3.2 | 0.53 | 5.54 | 4.52 | 98 | 1012.2 |
| 20260508003844 | 15 | 182 | 0.0 | 4.8 | 0.76 | 5.54 | 4.52 | 98 | 1011.9 |
| 20260508003345 | 15 | 181 | 0.0 | 4.8 | 1.22 | 5.54 | 4.52 | 97 | 1011.9 |
| 20260508002845 | 15 | 181 | 0.0 | 0.0 | 1.42 | 5.54 | 4.52 | 98 | 1011.8 |
| 20260508002344 | 15 | 181 | 0.0 | 1.6 | 1.55 | 5.54 | 4.52 | 97 | 1011.7 |
| 20260508001845 | 15 | 181 | 0.0 | 6.4 | 1.60 | 5.54 | 4.52 | 97 | 1011.6 |
| 20260508001344 | 15 | 181 | 0.0 | 6.4 | 1.60 | 5.54 | 4.52 | 97 | 1011.6 |
| 20260508000843 | 15 | 181 | 0.0 | 0.0 | 1.60 | 5.54 | 4.52 | 97 | 1011.4 |
| 20260508000342 | 15 | 182 | 0.0 | 1.6 | 1.60 | 5.54 | 4.52 | 97 | 1011.2 |
| 20260507235842 | 15 | 182 | 0.0 | 1.6 | 1.55 | 5.49 | 4.50 | 96 | 1011.0 |
| 20260507235343 | 15 | 181 | 1.6 | 4.8 | 1.52 | 5.46 | 4.45 | 96 | 1011.2 |
| 20260507234843 | 15 | 181 | 1.6 | 4.8 | 1.37 | 5.31 | 4.32 | 96 | 1010.9 |
| 20260507234343 | 15 | 181 | 1.6 | 11.3 | 1.07 | 5.00 | 3.99 | 95 | 1010.3 |
| 20260507233843 | 15 | 181 | 1.6 | 11.3 | 0.86 | 4.78 | 3.81 | 94 | 1010.7 |
| 20260507233343 | 16 | 181 | 1.6 | 6.4 | 0.28 | 4.19 | 3.25 | 94 | 1009.7 |
| 20260507232843 | 16 | 181 | 1.6 | 14.5 | 0.20 | 4.11 | 3.10 | 93 | 1009.2 |
| 20260507232343 | 16 | 181 | 3.2 | 17.7 | 0.28 | 3.99 | 3.00 | 92 | 1009.5 |
| 20260507231842 | 16 | 181 | 4.8 | 17.7 | 0.38 | 3.94 | 2.92 | 92 | 1009.2 |
| 20260507231343 | 17 | 182 | 3.2 | 12.9 | 0.41 | 3.94 | 2.92 | 91 | 1009.7 |
| 20260507230842 | 17 | 182 | 1.6 | 9.7 | 0.43 | 3.94 | 2.92 | 91 | 1008.6 |
| 20260507230342 | 18 | 182 | 1.6 | 9.7 | 0.43 | 3.94 | 2.92 | 91 | 1009.2 |
| 20260507230113 | 18 | 182 | 3.2 | 9.7 | 0.43 | 3.94 | 2.92 | 90 | 1009.1 |
| 20260507225343 | 18 | 182 | 4.8 | 17.7 | 0.43 | 3.94 | 2.92 | 90 | 1008.9 |
| 20260507224842 | 20 | 182 | 3.2 | 17.7 | 0.43 | 3.94 | 2.92 | 88 | 1008.7 |
| 20260507224342 | 21 | 176 | 1.6 | 8.0 | 0.43 | 3.94 | 2.92 | 93 | 1008.4 |
| 20260507224115 | 21 | 176 | 0.0 | 1.6 | 0.41 | 3.91 | 2.90 | 92 | 1008.1 |
| 20260507223343 | 21 | 176 | 0.0 | 1.6 | 0.41 | 3.91 | 2.90 | 91 | 1008.1 |
| 20260507222842 | 22 | 176 | 0.0 | 8.0 | 0.41 | 3.91 | 2.90 | 89 | 1007.9 |
| 20260507222615 | 22 | 176 | 0.0 | 8.0 | 0.20 | 3.71 | 2.72 | 86 | 1008.1 |
| 20260507221842 | 23 | 176 | 0.0 | 3.2 | 0.05 | 3.56 | 2.54 | 84 | 1007.9 |
| 20260507221342 | 24 | 175 | 0.0 | 6.4 | 0.03 | 3.53 | 2.51 | 79 | 1007.8 |
| 20260507220843 | 24 | 175 | 1.6 | 6.4 | 0.00 | 3.51 | 2.49 | 76 | 1007.6 |
| 20260507220342 | 25 | 175 | 0.0 | 4.8 | 0.00 | 3.51 | 2.49 | 75 | 1007.5 |
| 20260507215843 | 25 | 175 | 0.0 | 4.8 | 0.00 | 3.51 | 2.49 | 74 | 1007.5 |
| 20260507215342 | 25 | 175 | 1.6 | 4.8 | 0.00 | 3.51 | 2.49 | 73 | 1007.6 |
| 20260507214842 | 25 | 175 | 1.6 | 8.0 | 0.00 | 3.51 | 2.49 | 72 | 1007.4 |
| 20260507214342 | 26 | 175 | 1.6 | 8.0 | 0.00 | 3.51 | 2.49 | 71 | 1007.4 |
| 20260507213843 | 26 | 176 | 1.6 | 9.7 | 0.00 | 3.51 | 2.49 | 71 | 1007.4 |
| 20260507213340 | 26 | 175 | 1.6 | 9.7 | 0.00 | 3.51 | 2.49 | 72 | 1007.3 |
| 20260507212840 | 26 | 175 | 1.6 | 8.0 | 0.00 | 3.51 | 2.49 | 72 | 1007.4 |
| 20260507212338 | 26 | 175 | 3.2 | 8.0 | 0.00 | 3.51 | 2.49 | 72 | 1007.3 |
| 20260507211839 | 26 | 175 | 1.6 | 9.7 | 0.00 | 3.51 | 2.49 | 73 | 1007.4 |
| 20260507211337 | 26 | 175 | 1.6 | 9.7 | 0.00 | 3.51 | 2.49 | 72 | 1007.5 |
| 20260507210836 | 26 | 175 | 0.0 | 4.8 | 0.00 | 3.51 | 2.49 | 71 | 1007.7 |
| 20260507210336 | 26 | 176 | 1.6 | 11.3 | 0.00 | 3.51 | 2.49 | 70 | 1007.7 |
| 20260507205836 | 26 | 176 | 1.6 | 11.3 | 0.00 | 3.51 | 2.49 | 71 | 1007.6 |
| 20260507205336 | 26 | 176 | 1.6 | 8.0 | 0.00 | 3.51 | 2.49 | 70 | 1007.6 |
| 20260507205106 | 26 | 176 | 1.6 | 8.0 | 0.00 | 3.51 | 2.49 | 70 | 1007.2 |
| 20260507204338 | 27 | 175 | 1.6 | 6.4 | 0.00 | 3.51 | 2.49 | 69 | 1007.5 |
| 20260507204334 | 27 | 176 | 1.6 | 6.4 | 0.00 | 3.51 | 2.49 | 70 | 1007.2 |
| 20260507203603 | 26 | 175 | 1.6 | 6.4 | 0.00 | 3.51 | 2.49 | 68 | 1007.5 |
| 20260507202833 | 27 | 175 | 1.6 | 6.4 | 0.00 | 3.51 | 2.49 | 67 | 1007.6 |
| 20260507202604 | 26 | 176 | 1.6 | 6.4 | 0.00 | 3.51 | 2.49 | 68 | 1007.6 |
| 20260507201832 | 26 | 175 | 3.2 | 9.7 | 0.00 | 3.51 | 2.49 | 68 | 1007.7 |
| 20260507201332 | 26 | 176 | 3.2 | 9.7 | 0.00 | 3.51 | 2.49 | 70 | 1007.7 |
| 20260507200832 | 26 | 176 | 1.6 | 6.4 | 0.00 | 3.51 | 2.49 | 69 | 1007.7 |
| 20260507200332 | 26 | 175 | 1.6 | 6.4 | 0.00 | 3.51 | 2.49 | 70 | 1007.8 |
| 20260507195832 | 26 | 175 | 1.6 | 8.0 | 0.00 | 3.51 | 2.49 | 70 | 1007.9 |
| 20260507195333 | 26 | 175 | 1.6 | 8.0 | 0.00 | 3.51 | 2.49 | 68 | 1008.0 |
| 20260507194832 | 26 | 176 | 1.6 | 6.4 | 0.00 | 3.51 | 2.49 | 71 | 1008.0 |
| 20260507194601 | 26 | 175 | 1.6 | 6.4 | 0.00 | 3.51 | 2.49 | 70 | 1008.0 |
| 20260507193830 | 26 | 176 | 3.2 | 12.9 | 0.00 | 3.51 | 2.49 | 71 | 1008.4 |
| 20260507193330 | 26 | 175 | 3.2 | 12.9 | 0.00 | 3.51 | 2.49 | 73 | 1008.6 |
| 20260507193101 | 25 | 176 | 3.2 | 14.5 | 0.00 | 3.51 | 2.49 | 73 | 1008.5 |
| 20260507192330 | 25 | 175 | 1.6 | 14.5 | 0.00 | 3.51 | 2.49 | 73 | 1008.6 |
| 20260507191832 | 25 | 175 | 3.2 | 19.3 | 0.00 | 3.51 | 2.49 | 72 | 1008.6 |
| 20260507191330 | 25 | 175 | 4.8 | 19.3 | 0.00 | 3.51 | 2.49 | 73 | 1008.6 |
| 20260507190830 | 25 | 176 | 4.8 | 17.7 | 0.00 | 3.51 | 2.49 | 74 | 1008.8 |
| 20260507190330 | 25 | 176 | 4.8 | 17.7 | 0.00 | 3.51 | 2.49 | 76 | 1008.8 |
| 20260507185831 | 25 | 180 | 3.2 | 16.1 | 0.00 | 3.51 | 2.49 | 75 | 1008.8 |
| 20260507185601 | 25 | 180 | 1.6 | 12.9 | 0.00 | 3.51 | 2.49 | 74 | 1008.7 |
| 20260507184830 | 25 | 180 | 1.6 | 8.0 | 0.00 | 3.51 | 2.49 | 75 | 1008.7 |
| 20260507184330 | 25 | 180 | 1.6 | 8.0 | 0.00 | 3.51 | 2.49 | 76 | 1008.7 |
| 20260507183830 | 25 | 180 | 1.6 | 6.4 | 0.00 | 3.51 | 2.49 | 78 | 1008.7 |
| 20260507183328 | 25 | 180 | 1.6 | 8.0 | 0.00 | 3.51 | 2.49 | 77 | 1008.7 |
| 20260507182828 | 24 | 180 | 1.6 | 8.0 | 0.00 | 3.51 | 2.49 | 80 | 1008.6 |
| 20260507182328 | 24 | 180 | 1.6 | 8.0 | 0.00 | 3.51 | 2.49 | 82 | 1008.7 |
| 20260507181828 | 23 | 180 | 1.6 | 9.7 | 0.00 | 3.51 | 2.49 | 85 | 1008.6 |
| 20260507181328 | 23 | 180 | 1.6 | 9.7 | 0.00 | 3.51 | 2.49 | 84 | 1008.6 |
| 20260507180828 | 23 | 180 | 1.6 | 8.0 | 0.00 | 3.51 | 2.49 | 83 | 1008.6 |
| 20260507180328 | 23 | 180 | 1.6 | 8.0 | 0.00 | 3.51 | 2.49 | 84 | 1008.7 |
| 20260507175328 | 23 | 180 | 1.6 | 9.7 | 0.00 | 3.51 | 2.49 | 87 | 1009.0 |
| 20260507174827 | 23 | 180 | 1.6 | 9.7 | 0.00 | 3.51 | 2.49 | 86 | 1008.8 |
| 20260507174326 | 23 | 180 | 1.6 | 6.4 | 0.00 | 3.51 | 2.49 | 87 | 1008.9 |
| 20260507174057 | 22 | 180 | 0.0 | 6.4 | 0.00 | 3.51 | 2.49 | 88 | 1009.1 |
| 20260507173556 | 22 | 180 | 0.0 | 3.2 | 0.00 | 3.51 | 2.49 | 91 | 1009.3 |
| 20260507172826 | 22 | 180 | 0.0 | 1.6 | 0.00 | 3.51 | 2.49 | 92 | 1009.4 |
| 20260507172326 | 22 | 180 | 0.0 | 3.2 | 0.00 | 3.51 | 2.49 | 91 | 1009.3 |
| 20260507171827 | 22 | 180 | 0.0 | 4.8 | 0.00 | 3.51 | 2.49 | 91 | 1009.2 |
| 20260507171326 | 22 | 180 | 0.0 | 4.8 | 0.00 | 3.51 | 2.49 | 91 | 1009.3 |
| 20260507170828 | 21 | 180 | 0.0 | 1.6 | 0.00 | 3.51 | 2.49 | 92 | 1009.3 |
| 20260507170824 | 22 | 180 | 0.0 | 1.6 | 0.00 | 3.51 | 2.49 | 92 | 1009.4 |
| 20260507165822 | 21 | 180 | 0.0 | 4.8 | 0.00 | 3.51 | 2.49 | 92 | 1009.3 |